QPF
0.24 0.20 0.08 0.03 0.05 0.04 0.04 0.05 0.05 0.01 0.00 0.00 0.00 0.00 0.00 0.00 0.00 0.01 0.04 0.05 0.03 0.00
0.08 0.03 0.03 0.05 0.04 0.03 0.03 0.03 0.02 0.01 0.01 0.01 0.01 0.00 0.00 0.00 0.01 0.01 0.02 0.02 0.01 0.01
0.03 0.01 0.01 0.01 0.00 0.01 0.01 0.01 0.01 0.02 0.01 0.00 0.00 0.00 0.00 0.00 0.00 0.00 0.00 0.00 0.00 0.00
0.00 0.00 0.00 0.00 0.00 0.00 0.00 0.00 0.00 0.00 0.00 0.00 0.00 0.00 0.00 0.00 0.00 0.00 0.00 0.00 0.00 0.03
0.00 0.00 0.00 0.00 0.00 0.00 0.00 0.00 0.00 0.00 0.00 0.00 0.00 0.00 0.00 0.00 0.00 0.00 0.00 0.00 0.00 0.00
0.00 0.00 0.00 0.00 0.00 0.00 0.00 0.00 0.00 0.00 0.00 0.00 0.00 0.00 0.00 0.00 0.00 0.00 0.00 0.00 0.00 0.00
0.00 0.00 0.00 0.00 0.00 0.00 0.00 0.00 0.00 0.00 0.00 0.00 0.00 0.00 0.00 0.00 0.00 0.00 0.00 0.00 0.00 0.00
0.00 0.00 0.00 0.00 0.00 0.00 0.00 0.00 0.00 0.00 0.00 0.00 0.00 0.00 0.00 0.00 0.00 0.00 0.00 0.00 0.00 0.00
0.00 0.00 0.00 0.00 0.00 0.00 0.00 0.00 0.00 0.00 0.00 0.00 0.00 0.00 0.00 0.00 0.00 0.00 0.00 0.00 0.00 0.00
0.00 0.00 0.00 0.00 0.00 0.00 0.00 0.00 0.00 0.00 0.00 0.00 0.00 0.00 0.00 0.00 0.00 0.00 0.00 0.00 0.00 0.00
0.00 0.00 0.00 0.00 0.00 0.00 0.00 0.00 0.00 0.00 0.00 0.00 0.00 0.00 0.00 0.00 0.00 0.00 0.00 0.00 0.00 0.00
0.00 0.00 0.00 0.00 0.00 0.00 0.00 0.00 0.00 0.00 0.00 0.00 0.00 0.00 0.00 0.00 0.00 0.00 0.00 0.00 0.00 0.00
0.00 0.00 0.00 0.00 0.00 0.00 0.00 0.00 0.00 0.00 0.00 0.00 0.00 0.00 0.00 0.00 0.00 0.00 0.00 0.00 0.00 0.00
0.00 0.00 0.00 0.00 0.00 0.00 0.00 0.00 0.00 0.00 0.00 0.00 0.00 0.00 0.00 0.00 0.00 0.00 0.00 0.00 0.00 0.00
MSLP
1013.53 1016.48 1016.58 1016.36 1016.12 1015.76 1015.43 1015.35 1015.05 1014.53 1014.07 1013.62 1013.18 1013.00 1012.65 1012.39 1012.34 1012.32 1012.31 1012.38 1012.40 1012.22
1015.13 1016.56 1016.74 1016.73 1016.71 1016.30 1016.10 1015.73 1015.52 1015.10 1014.63 1014.33 1013.74 1013.23 1012.68 1012.40 1012.37 1012.22 1011.98 1011.92 1011.96 1011.87
1015.68 1016.16 1016.65 1016.91 1016.59 1016.48 1016.36 1016.26 1015.89 1015.34 1014.83 1014.50 1014.18 1013.85 1013.37 1012.91 1012.67 1012.67 1012.08 1011.78 1011.65 1011.53
1016.10 1016.54 1017.10 1017.02 1016.86 1016.85 1016.89 1016.74 1016.17 1015.76 1015.38 1014.92 1014.57 1014.30 1013.98 1013.60 1013.17 1013.02 1012.69 1012.53 1011.93 1011.62
1016.30 1016.71 1017.04 1017.10 1017.13 1017.19 1016.96 1016.69 1016.42 1016.06 1015.71 1015.26 1015.12 1014.81 1014.46 1013.95 1013.77 1013.44 1012.94 1012.71 1012.28 1011.78
1016.36 1016.84 1017.20 1017.36 1017.22 1017.07 1017.19 1017.08 1016.47 1016.03 1015.63 1015.42 1015.28 1015.18 1014.91 1014.52 1014.16 1013.78 1013.36 1012.99 1012.41 1011.95
1016.88 1017.17 1017.24 1017.15 1017.22 1017.23 1017.00 1016.91 1016.62 1016.13 1016.13 1016.02 1015.68 1015.71 1015.30 1014.85 1014.42 1013.77 1013.32 1013.02 1012.69 1012.15
1017.38 1017.43 1017.46 1017.37 1017.30 1017.20 1017.14 1016.81 1017.07 1016.88 1016.73 1016.37 1015.84 1015.70 1015.43 1015.16 1014.40 1013.94 1013.48 1012.94 1012.47 1012.01
1017.57 1017.35 1017.54 1017.44 1017.69 1017.75 1017.83 1017.71 1017.73 1017.41 1017.11 1016.66 1016.10 1016.14 1016.02 1015.50 1014.48 1014.11 1013.54 1013.01 1012.74 1012.28
1017.57 1017.62 1017.88 1017.98 1018.15 1018.30 1018.36 1018.21 1017.98 1017.65 1017.15 1016.82 1016.69 1016.74 1016.34 1015.51 1014.64 1014.25 1014.03 1013.71 1013.33 1012.75
1017.78 1017.83 1018.20 1018.36 1018.53 1018.73 1018.61 1018.24 1017.84 1017.58 1017.46 1017.13 1017.04 1017.09 1016.46 1015.61 1014.89 1014.50 1014.20 1013.99 1013.76 1013.45
1018.04 1018.23 1018.40 1018.51 1018.61 1018.75 1018.41 1018.16 1018.08 1018.03 1017.80 1017.56 1017.28 1017.23 1016.74 1015.92 1015.11 1014.67 1014.30 1014.11 1013.77 1013.55
1018.44 1018.55 1018.48 1018.44 1018.48 1018.62 1018.50 1018.36 1018.04 1017.93 1017.94 1017.81 1017.47 1017.42 1017.14 1016.60 1015.65 1015.14 1014.40 1013.98 1013.91 1013.80
1018.62 1018.61 1018.55 1018.57 1018.60 1018.60 1018.48 1018.24 1017.99 1017.87 1017.67 1017.49 1017.57 1017.35 1017.32 1017.10 1016.24 1015.71 1014.81 1014.37 1014.16 1014.09
Thickness
5762 5737 5734 5736 5735 5737 5737 5734 5733 5735 5737 5739 5742 5743 5746 5748 5747 5747 5745 5743 5743 5745
5748 5734 5731 5731 5728 5729 5728 5727 5725 5726 5726 5726 5730 5733 5738 5738 5737 5739 5741 5742 5741 5741
5740 5736 5729 5724 5724 5723 5720 5716 5716 5717 5719 5718 5719 5720 5723 5726 5728 5725 5731 5734 5735 5736
5734 5729 5721 5719 5718 5715 5710 5708 5708 5708 5708 5708 5708 5708 5708 5711 5714 5714 5717 5718 5724 5726
5729 5724 5717 5714 5711 5708 5703 5701 5702 5701 5699 5699 5697 5696 5697 5700 5700 5701 5705 5707 5712 5714
5724 5716 5709 5705 5703 5701 5697 5693 5695 5694 5695 5693 5690 5687 5687 5688 5689 5690 5693 5696 5701 5704
5711 5706 5703 5702 5698 5693 5692 5687 5686 5687 5683 5680 5680 5676 5676 5678 5679 5683 5686 5688 5690 5694
5701 5698 5694 5691 5688 5685 5682 5681 5675 5672 5670 5670 5672 5670 5669 5667 5672 5674 5676 5680 5684 5686
5694 5692 5686 5685 5679 5674 5669 5665 5660 5658 5658 5659 5662 5657 5655 5656 5662 5664 5667 5670 5671 5674
5687 5683 5678 5672 5666 5659 5653 5651 5649 5649 5650 5650 5647 5642 5642 5647 5653 5653 5652 5653 5654 5657
5675 5672 5665 5660 5653 5647 5644 5643 5643 5642 5638 5638 5635 5630 5632 5637 5640 5640 5640 5639 5638 5639
5670 5663 5657 5651 5645 5639 5637 5635 5632 5629 5628 5626 5625 5620 5620 5624 5627 5626 5626 5626 5626 5626
5658 5652 5647 5643 5638 5632 5629 5626 5626 5623 5618 5615 5615 5610 5608 5608 5612 5612 5614 5613 5610 5608
5647 5643 5639 5634 5629 5625 5621 5620 5618 5615 5612 5610 5604 5602 5597 5595 5599 5597 5600 5598 5595 5591